Time,TemperatureF,DewpointF,PressureIn,WindDirection,WindDirectionDegrees,WindSpeedMPH,WindSpeedGustMPH,Humidity,HourlyPrecipIn,Conditions,Clouds,dailyrainin,SoftwareType,DateUTC
2013-03-31 00:00:00,36.9,15.4,30.15,WNW,292,0.0,0.0,41,0.00,,---,0.00,VWS V13.01,2013-03-31 04:00:00,
2013-03-31 00:05:00,36.7,15.2,30.15,WNW,292,0.0,0.0,41,0.00,,---,0.00,VWS V13.01,2013-03-31 04:05:00,
2013-03-31 00:10:00,36.5,15.6,30.15,WNW,292,0.0,0.0,42,0.00,,---,0.00,VWS V13.01,2013-03-31 04:10:00,
2013-03-31 00:15:00,36.3,15.4,30.15,WNW,292,0.0,0.0,42,0.00,,---,0.00,VWS V13.01,2013-03-31 04:15:00,
2013-03-31 00:20:00,36.1,15.3,30.15,WNW,292,0.0,0.0,42,0.00,,---,0.00,VWS V13.01,2013-03-31 04:20:00,
2013-03-31 00:25:00,36.0,15.1,30.15,WNW,292,0.0,0.0,42,0.00,,---,0.00,VWS V13.01,2013-03-31 04:25:00,
2013-03-31 00:30:00,36.0,15.1,30.15,WNW,292,0.0,0.0,42,0.00,,---,0.00,VWS V13.01,2013-03-31 04:30:00,
2013-03-31 00:35:00,35.8,14.9,30.15,WNW,292,4.0,4.0,42,0.00,,---,0.00,VWS V13.01,2013-03-31 04:35:00,
2013-03-31 00:40:00,35.6,14.8,30.15,WNW,292,4.0,4.0,42,0.00,,---,0.00,VWS V13.01,2013-03-31 04:40:00,
2013-03-31 00:45:00,35.6,14.8,30.15,WNW,292,3.1,3.1,42,0.00,,---,0.00,VWS V13.01,2013-03-31 04:45:00,
2013-03-31 00:50:00,35.4,14.6,30.15,WNW,292,3.1,3.1,42,0.00,,---,0.00,VWS V13.01,2013-03-31 04:50:00,
2013-03-31 00:55:00,35.4,15.2,30.15,West,270,4.5,4.5,43,0.00,,---,0.00,VWS V13.01,2013-03-31 04:55:00,
2013-03-31 01:00:00,35.2,15.0,30.15,West,270,4.5,4.9,43,0.00,,---,0.00,VWS V13.01,2013-03-31 05:00:00,
2013-03-31 01:05:00,35.2,15.0,30.15,West,270,4.0,4.0,43,0.00,,---,0.00,VWS V13.01,2013-03-31 05:05:00,
2013-03-31 01:10:00,35.2,15.5,30.15,West,270,4.9,4.9,44,0.00,,---,0.00,VWS V13.01,2013-03-31 05:10:00,
2013-03-31 01:15:00,35.1,15.4,30.15,West,270,4.5,4.9,44,0.00,,---,0.00,VWS V13.01,2013-03-31 05:15:00,
2013-03-31 01:20:00,35.1,15.4,30.15,WNW,292,3.1,3.1,44,0.00,,---,0.00,VWS V13.01,2013-03-31 05:20:00,
2013-03-31 01:25:00,35.1,15.4,30.15,WNW,292,0.0,0.0,44,0.00,,---,0.00,VWS V13.01,2013-03-31 05:25:00,
2013-03-31 01:30:00,35.1,15.9,30.15,WNW,292,0.0,0.0,45,0.00,,---,0.00,VWS V13.01,2013-03-31 05:30:00,
2013-03-31 01:35:00,34.7,16.0,30.15,WNW,292,0.0,0.0,46,0.00,,---,0.00,VWS V13.01,2013-03-31 05:35:00,
2013-03-31 01:40:00,34.5,15.4,30.15,WNW,292,4.5,4.5,45,0.00,,---,0.00,VWS V13.01,2013-03-31 05:40:00,
2013-03-31 01:45:00,34.5,15.9,30.15,WNW,292,3.1,3.1,46,0.00,,---,0.00,VWS V13.01,2013-03-31 05:45:00,
2013-03-31 01:50:00,34.3,15.2,30.15,WNW,292,0.0,0.0,45,0.00,,---,0.00,VWS V13.01,2013-03-31 05:50:00,
2013-03-31 01:55:00,34.3,15.7,30.15,WNW,292,0.0,0.0,46,0.00,,---,0.00,VWS V13.01,2013-03-31 05:55:00,
2013-03-31 02:00:00,34.2,15.6,30.15,WNW,292,0.0,0.0,46,0.00,,---,0.00,VWS V13.01,2013-03-31 06:00:00,
2013-03-31 02:05:00,34.0,15.4,30.15,WNW,292,2.2,2.2,46,0.00,,---,0.00,VWS V13.01,2013-03-31 06:05:00,
2013-03-31 02:10:00,34.0,15.4,30.15,WNW,292,3.1,3.1,46,0.00,,---,0.00,VWS V13.01,2013-03-31 06:10:00,
2013-03-31 02:15:00,34.0,15.4,30.15,WNW,292,2.7,3.1,46,0.00,,---,0.00,VWS V13.01,2013-03-31 06:15:00,
2013-03-31 02:20:00,33.8,15.2,30.15,WNW,292,2.2,2.2,46,0.00,,---,0.00,VWS V13.01,2013-03-31 06:20:00,
2013-03-31 02:25:00,33.8,15.7,30.15,WNW,292,0.0,0.0,47,0.00,,---,0.00,VWS V13.01,2013-03-31 06:25:00,
2013-03-31 02:30:00,33.6,16.0,30.15,WNW,292,0.0,0.0,48,0.00,,---,0.00,VWS V13.01,2013-03-31 06:30:00,
2013-03-31 02:35:00,33.4,15.9,30.15,WNW,292,0.0,0.0,48,0.00,,---,0.00,VWS V13.01,2013-03-31 06:35:00,
2013-03-31 02:40:00,33.3,15.7,30.15,WNW,292,0.0,0.0,48,0.00,,---,0.00,VWS V13.01,2013-03-31 06:40:00,
2013-03-31 02:45:00,33.3,15.7,30.15,WNW,292,0.0,0.0,48,0.00,,---,0.00,VWS V13.01,2013-03-31 06:45:00,
2013-03-31 02:50:00,33.1,16.0,30.15,WNW,292,0.0,0.0,49,0.00,,---,0.00,VWS V13.01,2013-03-31 06:50:00,
2013-03-31 02:55:00,33.1,16.9,30.15,WNW,292,0.0,0.0,51,0.00,,---,0.00,VWS V13.01,2013-03-31 06:55:00,
2013-03-31 03:00:00,32.7,17.0,30.15,WNW,292,0.0,0.0,52,0.00,,---,0.00,VWS V13.01,2013-03-31 07:00:00,
2013-03-31 03:05:00,32.7,17.0,30.15,WNW,292,0.0,0.0,52,0.00,,---,0.00,VWS V13.01,2013-03-31 07:05:00,
2013-03-31 03:10:00,32.5,16.9,30.15,WNW,292,0.0,0.0,52,0.00,,---,0.00,VWS V13.01,2013-03-31 07:10:00,
2013-03-31 03:15:00,32.4,16.7,30.15,WNW,292,0.0,0.0,52,0.00,,---,0.00,VWS V13.01,2013-03-31 07:15:00,
2013-03-31 03:20:00,32.2,16.1,30.15,WNW,292,0.0,0.0,51,0.00,,---,0.00,VWS V13.01,2013-03-31 07:20:00,
2013-03-31 03:25:00,32.2,16.5,30.15,South,180,1.8,2.2,52,0.00,,---,0.00,VWS V13.01,2013-03-31 07:25:00,
2013-03-31 03:30:00,32.0,16.4,30.15,South,180,0.0,0.0,52,0.00,,---,0.00,VWS V13.01,2013-03-31 07:30:00,
2013-03-31 03:35:00,31.6,16.5,30.15,South,180,0.0,0.0,53,0.00,,---,0.00,VWS V13.01,2013-03-31 07:35:00,
2013-03-31 03:40:00,31.5,16.3,30.15,South,180,0.0,0.0,53,0.00,,---,0.00,VWS V13.01,2013-03-31 07:40:00,
2013-03-31 03:45:00,31.3,16.1,30.15,WNW,292,0.0,0.0,53,0.00,,---,0.00,VWS V13.01,2013-03-31 07:45:00,
2013-03-31 03:50:00,31.1,16.0,30.15,WNW,292,0.0,0.0,53,0.00,,---,0.00,VWS V13.01,2013-03-31 07:50:00,
2013-03-31 03:55:00,31.1,16.0,30.15,WNW,292,0.0,0.0,53,0.00,,---,0.00,VWS V13.01,2013-03-31 07:55:00,
2013-03-31 04:00:00,30.9,15.8,30.15,WSW,248,0.0,0.0,53,0.00,,---,0.00,VWS V13.01,2013-03-31 08:00:00,
2013-03-31 04:05:00,30.7,15.6,30.15,WSW,248,0.0,0.0,53,0.00,,---,0.00,VWS V13.01,2013-03-31 08:05:00,
2013-03-31 04:10:00,30.7,15.6,30.15,WSW,248,0.0,0.0,53,0.00,,---,0.00,VWS V13.01,2013-03-31 08:10:00,
2013-03-31 04:15:00,30.6,15.5,30.15,WSW,248,0.0,0.0,53,0.00,,---,0.00,VWS V13.01,2013-03-31 08:15:00,
2013-03-31 04:20:00,30.6,15.5,30.15,WSW,248,0.0,0.0,53,0.00,,---,0.00,VWS V13.01,2013-03-31 08:20:00,
2013-03-31 04:25:00,30.6,15.5,30.15,WSW,248,0.0,0.0,53,0.00,,---,0.00,VWS V13.01,2013-03-31 08:25:00,
2013-03-31 04:30:00,30.6,15.9,30.15,WSW,248,0.0,0.0,54,0.00,,---,0.00,VWS V13.01,2013-03-31 08:30:00,
2013-03-31 04:35:00,30.4,15.7,30.15,WSW,248,0.0,0.0,54,0.00,,---,0.00,VWS V13.01,2013-03-31 08:35:00,
2013-03-31 04:40:00,30.2,16.0,30.15,WSW,248,0.0,0.0,55,0.00,,---,0.00,VWS V13.01,2013-03-31 08:40:00,
2013-03-31 04:45:00,30.2,16.0,30.15,WSW,248,0.0,0.0,55,0.00,,---,0.00,VWS V13.01,2013-03-31 08:45:00,
2013-03-31 04:50:00,30.2,16.4,30.15,WSW,248,0.0,0.0,56,0.00,,---,0.00,VWS V13.01,2013-03-31 08:50:00,
2013-03-31 04:55:00,30.0,16.2,30.15,WSW,248,0.0,0.0,56,0.00,,---,0.00,VWS V13.01,2013-03-31 08:55:00,
2013-03-31 05:00:00,29.8,16.1,30.15,WSW,248,0.0,0.0,56,0.00,,---,0.00,VWS V13.01,2013-03-31 09:00:00,
2013-03-31 05:05:00,29.8,15.7,30.15,WSW,248,0.0,0.0,55,0.00,,---,0.00,VWS V13.01,2013-03-31 09:05:00,
2013-03-31 05:10:00,29.7,15.9,30.15,WSW,248,0.0,0.0,56,0.00,,---,0.00,VWS V13.01,2013-03-31 09:10:00,
2013-03-31 05:15:00,29.7,15.9,30.15,WSW,248,0.0,0.0,56,0.00,,---,0.00,VWS V13.01,2013-03-31 09:15:00,
2013-03-31 05:20:00,29.7,15.5,30.15,WSW,248,0.0,0.0,55,0.00,,---,0.00,VWS V13.01,2013-03-31 09:20:00,
2013-03-31 05:25:00,29.7,15.5,30.15,WSW,248,0.0,0.0,55,0.00,,---,0.00,VWS V13.01,2013-03-31 09:25:00,
2013-03-31 05:30:00,29.7,15.9,30.15,WSW,248,0.0,0.0,56,0.00,,---,0.00,VWS V13.01,2013-03-31 09:30:00,
2013-03-31 05:35:00,29.7,15.9,30.15,WSW,248,0.0,0.0,56,0.00,,---,0.00,VWS V13.01,2013-03-31 09:35:00,
2013-03-31 05:40:00,29.5,16.1,30.15,WSW,248,0.0,0.0,57,0.00,,---,0.00,VWS V13.01,2013-03-31 09:40:00,
2013-03-31 05:45:00,29.5,15.7,30.15,WSW,248,0.0,0.0,56,0.00,,---,0.00,VWS V13.01,2013-03-31 09:45:00,
2013-03-31 05:50:00,29.5,15.7,30.15,West,270,0.0,0.0,56,0.00,,---,0.00,VWS V13.01,2013-03-31 09:50:00,
2013-03-31 05:55:00,29.3,15.6,30.15,West,270,0.0,0.0,56,0.00,,---,0.00,VWS V13.01,2013-03-31 09:55:00,
2013-03-31 05:59:00,29.5,15.7,30.15,West,270,0.0,0.0,56,0.00,,---,0.00,VWS V13.01,2013-03-31 09:59:00,
2013-03-31 06:04:00,29.3,16.0,30.15,West,270,0.0,0.0,57,0.00,,---,0.00,VWS V13.01,2013-03-31 10:04:00,
2013-03-31 06:09:00,29.1,15.8,30.15,West,270,0.0,0.0,57,0.00,,---,0.00,VWS V13.01,2013-03-31 10:09:00,
2013-03-31 06:14:00,29.1,15.8,30.15,West,270,0.0,0.0,57,0.00,,---,0.00,VWS V13.01,2013-03-31 10:14:00,
2013-03-31 06:19:00,28.9,16.0,30.15,West,270,0.0,0.0,58,0.00,,---,0.00,VWS V13.01,2013-03-31 10:19:00,
2013-03-31 06:24:00,28.9,16.4,30.15,West,270,0.0,0.0,59,0.00,,---,0.00,VWS V13.01,2013-03-31 10:24:00,
2013-03-31 06:29:00,28.8,15.9,30.15,West,270,0.0,0.0,58,0.00,,---,0.00,VWS V13.01,2013-03-31 10:29:00,
2013-03-31 06:34:00,28.8,15.9,30.15,West,270,0.0,0.0,58,0.00,,---,0.00,VWS V13.01,2013-03-31 10:34:00,
2013-03-31 06:39:00,28.8,15.9,30.15,West,270,0.0,0.0,58,0.00,,---,0.00,VWS V13.01,2013-03-31 10:39:00,
2013-03-31 06:44:00,28.8,15.9,30.15,West,270,0.0,0.0,58,0.00,,---,0.00,VWS V13.01,2013-03-31 10:44:00,
2013-03-31 06:49:00,28.8,15.9,30.15,West,270,0.0,0.0,58,0.00,,---,0.00,VWS V13.01,2013-03-31 10:49:00,
2013-03-31 06:54:00,28.8,15.9,30.15,West,270,0.0,0.0,58,0.00,,---,0.00,VWS V13.01,2013-03-31 10:54:00,
2013-03-31 06:59:00,29.5,16.9,30.15,West,270,0.0,0.0,59,0.00,,---,0.00,VWS V13.01,2013-03-31 10:59:00,
2013-03-31 07:04:00,29.7,17.1,30.15,West,270,0.0,0.0,59,0.00,,---,0.00,VWS V13.01,2013-03-31 11:04:00,
2013-03-31 07:09:00,30.0,17.4,30.15,West,270,0.0,0.0,59,0.00,,---,0.00,VWS V13.01,2013-03-31 11:09:00,
2013-03-31 07:14:00,30.6,18.0,30.15,West,270,0.0,0.0,59,0.00,,---,0.00,VWS V13.01,2013-03-31 11:14:00,
2013-03-31 07:19:00,31.1,18.5,30.15,West,270,0.0,0.0,59,0.00,,---,0.00,VWS V13.01,2013-03-31 11:19:00,
2013-03-31 07:24:00,31.3,18.2,30.15,West,270,0.0,0.0,58,0.00,,---,0.00,VWS V13.01,2013-03-31 11:24:00,
2013-03-31 07:29:00,31.6,18.6,30.15,West,270,0.0,0.0,58,0.00,,---,0.00,VWS V13.01,2013-03-31 11:29:00,
2013-03-31 07:34:00,32.2,19.5,30.15,West,270,0.0,0.0,59,0.00,,---,0.00,VWS V13.01,2013-03-31 11:34:00,
2013-03-31 07:39:00,32.5,19.4,30.15,West,270,0.0,0.0,58,0.00,,---,0.00,VWS V13.01,2013-03-31 11:39:00,
2013-03-31 07:44:00,33.1,20.3,30.15,West,270,0.0,0.0,59,0.00,,---,0.00,VWS V13.01,2013-03-31 11:44:00,
2013-03-31 07:49:00,33.6,21.2,30.15,NNW,338,0.0,0.0,60,0.00,,---,0.00,VWS V13.01,2013-03-31 11:49:00,
2013-03-31 07:54:00,34.2,21.3,30.15,East,90,4.5,4.9,59,0.00,,---,0.00,VWS V13.01,2013-03-31 11:54:00,
2013-03-31 07:59:00,34.7,21.9,30.15,ENE,68,0.0,0.0,59,0.00,,---,0.00,VWS V13.01,2013-03-31 11:59:00,
2013-03-31 08:04:00,35.2,22.4,30.15,NE,45,0.0,0.0,59,0.00,,---,0.00,VWS V13.01,2013-03-31 12:04:00,
2013-03-31 08:09:00,35.6,22.3,30.12,NNE,22,1.8,2.2,58,0.00,,---,0.00,VWS V13.01,2013-03-31 12:09:00,
2013-03-31 08:14:00,36.1,22.4,30.12,NNE,22,0.0,0.0,57,0.00,,---,0.00,VWS V13.01,2013-03-31 12:14:00,
2013-03-31 08:19:00,36.9,22.6,30.12,NNE,22,0.0,0.0,56,0.00,,---,0.00,VWS V13.01,2013-03-31 12:19:00,
2013-03-31 08:24:00,37.6,22.9,30.12,NNW,338,0.0,0.0,55,0.00,,---,0.00,VWS V13.01,2013-03-31 12:24:00,
2013-03-31 08:29:00,38.1,22.5,30.12,NW,315,0.0,0.0,53,0.00,,---,0.00,VWS V13.01,2013-03-31 12:29:00,
2013-03-31 08:34:00,38.5,22.9,30.12,WNW,292,0.0,1.8,53,0.00,,---,0.00,VWS V13.01,2013-03-31 12:34:00,
2013-03-31 08:39:00,38.7,22.6,30.15,NE,45,0.0,0.0,52,0.00,,---,0.00,VWS V13.01,2013-03-31 12:39:00,
2013-03-31 08:44:00,39.2,22.6,30.15,NE,45,2.7,3.1,51,0.00,,---,0.00,VWS V13.01,2013-03-31 12:44:00,
2013-03-31 08:49:00,39.6,22.5,30.15,NNE,22,2.2,4.0,50,0.00,,---,0.00,VWS V13.01,2013-03-31 12:49:00,
2013-03-31 08:54:00,39.9,22.8,30.12,NW,315,0.0,2.2,50,0.00,,---,0.00,VWS V13.01,2013-03-31 12:54:00,
2013-03-31 08:59:00,40.3,22.7,30.12,NNE,22,0.0,1.8,49,0.00,,---,0.00,VWS V13.01,2013-03-31 12:59:00,
2013-03-31 09:04:00,40.5,22.8,30.12,NNE,22,0.0,4.5,49,0.00,,---,0.00,VWS V13.01,2013-03-31 13:04:00,
2013-03-31 09:09:00,40.8,23.1,30.12,NNE,22,2.7,4.5,49,0.00,,---,0.00,VWS V13.01,2013-03-31 13:09:00,
2013-03-31 09:14:00,41.4,23.2,30.12,NNW,338,0.0,2.2,48,0.00,,---,0.00,VWS V13.01,2013-03-31 13:14:00,
2013-03-31 09:19:00,41.9,23.7,30.12,NNW,338,0.0,4.5,48,0.00,,---,0.00,VWS V13.01,2013-03-31 13:19:00,
2013-03-31 09:24:00,42.4,24.1,30.12,ENE,68,0.0,0.0,48,0.00,,---,0.00,VWS V13.01,2013-03-31 13:24:00,
2013-03-31 09:29:00,43.3,25.0,30.12,SSE,158,1.8,2.7,48,0.00,,---,0.00,VWS V13.01,2013-03-31 13:29:00,
2013-03-31 09:34:00,43.7,24.8,30.12,NW,315,0.0,5.4,47,0.00,,---,0.00,VWS V13.01,2013-03-31 13:34:00,
2013-03-31 09:39:00,44.2,25.3,30.12,ENE,68,1.8,1.8,47,0.00,,---,0.00,VWS V13.01,2013-03-31 13:39:00,
2013-03-31 09:44:00,45.0,25.4,30.12,ESE,112,3.1,4.0,46,0.00,,---,0.00,VWS V13.01,2013-03-31 13:44:00,
2013-03-31 09:49:00,45.5,25.4,30.12,ESE,112,1.8,2.7,45,0.00,,---,0.00,VWS V13.01,2013-03-31 13:49:00,
2013-03-31 09:54:00,46.0,24.8,30.12,WNW,292,2.2,4.9,43,0.00,,---,0.00,VWS V13.01,2013-03-31 13:54:00,
2013-03-31 09:59:00,46.6,25.3,30.12,SSW,202,5.4,5.4,43,0.00,,---,0.00,VWS V13.01,2013-03-31 13:59:00,
2013-03-31 10:04:00,47.1,25.2,30.12,West,270,1.8,5.4,42,0.00,,---,0.00,VWS V13.01,2013-03-31 14:04:00,
2013-03-31 10:09:00,47.7,25.7,30.12,WSW,248,2.7,2.7,42,0.00,,---,0.00,VWS V13.01,2013-03-31 14:09:00,
2013-03-31 10:14:00,48.2,25.6,30.12,South,180,4.5,4.5,41,0.00,,---,0.00,VWS V13.01,2013-03-31 14:14:00,
2013-03-31 10:19:00,48.6,26.0,30.12,SSE,158,4.0,5.8,41,0.00,,---,0.00,VWS V13.01,2013-03-31 14:19:00,
2013-03-31 10:24:00,49.1,25.8,30.12,South,180,6.7,6.7,40,0.00,,---,0.00,VWS V13.01,2013-03-31 14:24:00,
2013-03-31 10:29:00,49.6,26.3,30.12,SE,135,1.8,4.5,40,0.00,,---,0.00,VWS V13.01,2013-03-31 14:29:00,
2013-03-31 10:34:00,50.2,26.2,30.12,West,270,2.7,6.7,39,0.00,,---,0.00,VWS V13.01,2013-03-31 14:34:00,
2013-03-31 10:39:00,50.7,26.7,30.12,SSE,158,4.9,6.3,39,0.00,,---,0.00,VWS V13.01,2013-03-31 14:39:00,
2013-03-31 10:44:00,51.6,27.5,30.12,South,180,1.8,6.3,39,0.00,,---,0.00,VWS V13.01,2013-03-31 14:44:00,
2013-03-31 10:49:00,52.2,27.3,30.12,SSE,158,4.0,4.9,38,0.00,,---,0.00,VWS V13.01,2013-03-31 14:49:00,
2013-03-31 10:54:00,52.7,27.8,30.12,West,270,6.3,6.3,38,0.00,,---,0.00,VWS V13.01,2013-03-31 14:54:00,
2013-03-31 10:59:00,53.1,28.1,30.12,ESE,112,5.4,5.4,38,0.00,,---,0.00,VWS V13.01,2013-03-31 14:59:00,
2013-03-31 11:04:00,53.4,27.8,30.12,SSE,158,4.5,9.8,37,0.00,,---,0.00,VWS V13.01,2013-03-31 15:04:00,
2013-03-31 11:09:00,54.0,28.3,30.12,SSW,202,5.4,6.3,37,0.00,,---,0.00,VWS V13.01,2013-03-31 15:09:00,
2013-03-31 11:14:00,54.3,28.0,30.12,SSW,202,4.9,7.6,36,0.00,,---,0.00,VWS V13.01,2013-03-31 15:14:00,
2013-03-31 11:19:00,54.9,28.4,30.12,SW,225,7.6,7.6,36,0.00,,---,0.00,VWS V13.01,2013-03-31 15:19:00,
2013-03-31 11:24:00,55.6,29.1,30.09,South,180,7.6,11.6,36,0.00,,---,0.00,VWS V13.01,2013-03-31 15:24:00,
2013-03-31 11:29:00,56.1,29.5,30.09,West,270,8.5,8.5,36,0.00,,---,0.00,VWS V13.01,2013-03-31 15:29:00,
2013-03-31 11:34:00,56.7,30.0,30.09,SSW,202,5.8,6.7,36,0.00,,---,0.00,VWS V13.01,2013-03-31 15:34:00,
2013-03-31 11:39:00,57.0,30.4,30.09,SSW,202,1.8,4.0,36,0.00,,---,0.00,VWS V13.01,2013-03-31 15:39:00,
2013-03-31 11:44:00,57.4,30.0,30.09,SSE,158,6.3,7.2,35,0.00,,---,0.00,VWS V13.01,2013-03-31 15:44:00,
2013-03-31 11:49:00,57.7,30.3,30.09,SW,225,2.7,9.4,35,0.00,,---,0.00,VWS V13.01,2013-03-31 15:49:00,
2013-03-31 11:54:00,57.7,30.3,30.09,SSW,202,9.8,12.1,35,0.00,,---,0.00,VWS V13.01,2013-03-31 15:54:00,
2013-03-31 11:59:00,58.1,30.6,30.09,SSW,202,20.1,20.1,35,0.00,,---,0.00,VWS V13.01,2013-03-31 15:59:00,
2013-03-31 12:04:00,58.1,29.9,30.09,WNW,292,6.7,14.3,34,0.00,,---,0.00,VWS V13.01,2013-03-31 16:04:00,
2013-03-31 12:09:00,58.3,30.1,30.09,West,270,11.2,11.2,34,0.00,,---,0.00,VWS V13.01,2013-03-31 16:09:00,
2013-03-31 12:14:00,58.3,29.3,30.09,West,270,5.8,14.3,33,0.00,,---,0.00,VWS V13.01,2013-03-31 16:14:00,
2013-03-31 12:19:00,58.5,29.5,30.09,ENE,68,10.7,11.2,33,0.00,,---,0.00,VWS V13.01,2013-03-31 16:19:00,
2013-03-31 12:24:00,58.5,28.7,30.06,West,270,6.7,12.1,32,0.00,,---,0.00,VWS V13.01,2013-03-31 16:24:00,
2013-03-31 12:29:00,58.3,27.8,30.06,SSW,202,6.3,11.2,31,0.00,,---,0.00,VWS V13.01,2013-03-31 16:29:00,
2013-03-31 12:34:00,58.3,27.8,30.06,SSE,158,8.1,14.8,31,0.00,,---,0.00,VWS V13.01,2013-03-31 16:34:00,
2013-03-31 12:39:00,58.5,28.0,30.06,SE,135,6.7,9.0,31,0.00,,---,0.00,VWS V13.01,2013-03-31 16:39:00,
2013-03-31 12:44:00,58.8,29.0,30.06,NNW,338,4.0,7.2,32,0.00,,---,0.00,VWS V13.01,2013-03-31 16:44:00,
2013-03-31 12:49:00,59.2,29.4,30.06,SW,225,4.5,7.6,32,0.00,,---,0.00,VWS V13.01,2013-03-31 16:49:00,
2013-03-31 12:55:00,58.6,27.3,30.06,South,180,11.6,11.6,30,0.00,,---,0.00,VWS V13.01,2013-03-31 16:55:00,
2013-03-31 13:00:00,58.5,27.2,30.06,WNW,292,16.1,16.1,30,0.00,,---,0.00,VWS V13.01,2013-03-31 17:00:00,
2013-03-31 13:04:00,58.5,27.2,30.06,SW,225,9.8,9.8,30,0.00,,---,0.00,VWS V13.01,2013-03-31 17:04:00,
2013-03-31 13:10:00,58.5,27.2,30.06,SSE,158,7.6,12.1,30,0.00,,---,0.00,VWS V13.01,2013-03-31 17:10:00,
2013-03-31 13:15:00,58.5,27.2,30.06,SSW,202,5.4,17.5,30,0.00,,---,0.00,VWS V13.01,2013-03-31 17:15:00,
2013-03-31 13:19:00,57.9,26.7,30.06,WSW,248,9.8,19.7,30,0.00,,---,0.00,VWS V13.01,2013-03-31 17:19:00,
2013-03-31 13:24:00,57.7,26.5,30.06,South,180,8.1,14.8,30,0.00,,---,0.00,VWS V13.01,2013-03-31 17:24:00,
2013-03-31 13:29:00,57.7,27.3,30.06,SSW,202,11.2,13.0,31,0.00,,---,0.00,VWS V13.01,2013-03-31 17:29:00,
2013-03-31 13:35:00,57.9,26.7,30.06,WNW,292,14.8,14.8,30,0.00,,---,0.00,VWS V13.01,2013-03-31 17:35:00,
2013-03-31 13:40:00,58.3,27.8,30.06,SW,225,7.2,14.3,31,0.00,,---,0.00,VWS V13.01,2013-03-31 17:40:00,
2013-03-31 13:44:00,58.8,28.3,30.06,SW,225,7.2,7.2,31,0.00,,---,0.00,VWS V13.01,2013-03-31 17:44:00,
2013-03-31 13:49:00,59.0,28.4,30.06,WSW,248,4.0,6.3,31,0.00,,---,0.00,VWS V13.01,2013-03-31 17:49:00,
2013-03-31 13:54:00,59.0,27.6,30.03,SSE,158,4.9,10.7,30,0.00,,---,0.00,VWS V13.01,2013-03-31 17:54:00,
2013-03-31 13:59:00,58.6,27.3,30.03,WNW,292,16.1,22.4,30,0.00,,---,0.00,VWS V13.01,2013-03-31 17:59:00,
2013-03-31 14:04:00,58.6,27.3,30.03,SSW,202,8.1,13.9,30,0.00,,---,0.00,VWS V13.01,2013-03-31 18:04:00,
2013-03-31 14:09:00,58.6,27.3,30.03,SSW,202,5.4,6.7,30,0.00,,---,0.00,VWS V13.01,2013-03-31 18:09:00,
2013-03-31 14:14:00,58.8,27.5,30.03,South,180,11.6,20.6,30,0.00,,---,0.00,VWS V13.01,2013-03-31 18:14:00,
2013-03-31 14:19:00,58.5,27.2,30.03,WNW,292,8.1,8.1,30,0.00,,---,0.00,VWS V13.01,2013-03-31 18:19:00,
2013-03-31 14:24:00,58.5,27.2,30.03,West,270,19.7,19.7,30,0.00,,---,0.00,VWS V13.01,2013-03-31 18:24:00,
2013-03-31 14:29:00,58.5,27.2,30.03,WSW,248,8.1,8.1,30,0.00,,---,0.00,VWS V13.01,2013-03-31 18:29:00,
2013-03-31 14:34:00,58.5,27.2,30.03,West,270,4.9,6.3,30,0.00,,---,0.00,VWS V13.01,2013-03-31 18:34:00,
2013-03-31 14:39:00,58.3,27.0,30.03,West,270,6.7,15.2,30,0.00,,---,0.00,VWS V13.01,2013-03-31 18:39:00,
2013-03-31 14:44:00,57.9,26.7,30.03,SSW,202,8.5,13.4,30,0.00,,---,0.00,VWS V13.01,2013-03-31 18:44:00,
2013-03-31 14:50:00,57.6,26.4,30.03,NW,315,8.1,8.5,30,0.00,,---,0.00,VWS V13.01,2013-03-31 18:50:00,
2013-03-31 14:54:00,57.4,26.2,30.00,SW,225,7.6,20.1,30,0.00,,---,0.00,VWS V13.01,2013-03-31 18:54:00,
2013-03-31 14:59:00,57.0,25.9,30.00,West,270,6.3,8.5,30,0.00,,---,0.00,VWS V13.01,2013-03-31 18:59:00,
2013-03-31 15:05:00,57.2,26.1,30.00,WSW,248,5.8,12.1,30,0.00,,---,0.00,VWS V13.01,2013-03-31 19:05:00,
2013-03-31 15:10:00,57.6,26.4,30.00,West,270,6.3,6.3,30,0.00,,---,0.00,VWS V13.01,2013-03-31 19:10:00,
2013-03-31 15:15:00,57.7,27.3,30.00,WSW,248,7.2,8.1,31,0.00,,---,0.00,VWS V13.01,2013-03-31 19:15:00,
2013-03-31 15:20:00,58.3,27.8,30.00,SSW,202,4.9,12.5,31,0.00,,---,0.00,VWS V13.01,2013-03-31 19:20:00,
2013-03-31 15:24:00,58.8,28.3,30.00,South,180,8.1,8.1,31,0.00,,---,0.00,VWS V13.01,2013-03-31 19:24:00,
2013-03-31 15:30:00,58.8,27.5,30.00,SW,225,14.8,14.8,30,0.00,,---,0.00,VWS V13.01,2013-03-31 19:30:00,
2013-03-31 15:35:00,58.8,27.5,30.00,SSW,202,6.7,13.0,30,0.00,,---,0.00,VWS V13.01,2013-03-31 19:35:00,
2013-03-31 15:40:00,58.5,27.2,30.00,SSW,202,4.9,8.1,30,0.00,,---,0.00,VWS V13.01,2013-03-31 19:40:00,
2013-03-31 15:45:00,58.5,27.2,30.00,WSW,248,5.4,5.4,30,0.00,,---,0.00,VWS V13.01,2013-03-31 19:45:00,
2013-03-31 15:50:00,57.9,26.7,30.00,SSE,158,8.1,13.0,30,0.00,,---,0.00,VWS V13.01,2013-03-31 19:50:00,
2013-03-31 15:55:00,57.4,26.2,30.00,West,270,4.9,15.2,30,0.00,,---,0.00,VWS V13.01,2013-03-31 19:55:00,
2013-03-31 16:00:00,56.8,25.8,30.00,South,180,6.3,9.8,30,0.00,,---,0.00,VWS V13.01,2013-03-31 20:00:00,
2013-03-31 16:05:00,56.7,26.4,30.00,SSW,202,5.8,6.7,31,0.00,,---,0.00,VWS V13.01,2013-03-31 20:05:00,
2013-03-31 16:10:00,56.5,26.2,30.00,SSW,202,7.6,8.1,31,0.00,,---,0.00,VWS V13.01,2013-03-31 20:10:00,
2013-03-31 16:15:00,56.3,26.1,30.00,South,180,4.0,11.2,31,0.00,,---,0.00,VWS V13.01,2013-03-31 20:15:00,
2013-03-31 16:20:00,55.8,26.4,30.00,SSW,202,7.6,12.5,32,0.00,,---,0.00,VWS V13.01,2013-03-31 20:20:00,
2013-03-31 16:25:00,55.4,26.0,30.00,WSW,248,4.5,4.5,32,0.00,,---,0.00,VWS V13.01,2013-03-31 20:25:00,
2013-03-31 16:30:00,55.0,26.5,30.00,SSW,202,7.6,15.7,33,0.00,,---,0.00,VWS V13.01,2013-03-31 20:30:00,
2013-03-31 16:35:00,54.9,27.0,30.00,WSW,248,6.3,10.7,34,0.00,,---,0.00,VWS V13.01,2013-03-31 20:35:00,
2013-03-31 16:40:00,54.7,27.6,30.00,SE,135,4.9,11.6,35,0.00,,---,0.00,VWS V13.01,2013-03-31 20:40:00,
2013-03-31 16:45:00,54.3,27.3,30.00,SSW,202,7.6,7.6,35,0.00,,---,0.00,VWS V13.01,2013-03-31 20:45:00,
2013-03-31 16:50:00,53.6,27.3,30.00,SSW,202,15.7,15.7,36,0.00,,---,0.00,VWS V13.01,2013-03-31 20:50:00,
2013-03-31 16:55:00,53.2,27.7,29.97,West,270,8.1,18.8,37,0.00,,---,0.00,VWS V13.01,2013-03-31 20:55:00,
2013-03-31 17:00:00,52.5,27.7,29.97,SSW,202,15.7,16.1,38,0.00,,---,0.00,VWS V13.01,2013-03-31 21:00:00,
2013-03-31 17:05:00,52.2,27.3,29.97,South,180,6.7,15.2,38,0.00,,---,0.00,VWS V13.01,2013-03-31 21:05:00,
2013-03-31 17:10:00,51.8,27.6,29.97,WSW,248,5.4,7.6,39,0.00,,---,0.00,VWS V13.01,2013-03-31 21:10:00,
2013-03-31 17:15:00,51.3,29.5,29.97,WSW,248,8.5,20.6,43,0.00,,---,0.00,VWS V13.01,2013-03-31 21:15:00,
2013-03-31 17:20:00,50.5,30.0,29.97,WSW,248,3.1,3.1,45,0.00,,---,0.00,VWS V13.01,2013-03-31 21:20:00,
2013-03-31 17:25:00,50.0,30.6,29.97,WNW,292,3.1,11.2,47,0.00,,---,0.00,VWS V13.01,2013-03-31 21:25:00,
2013-03-31 17:30:00,49.8,30.9,29.97,SSE,158,3.1,5.4,48,0.00,,---,0.00,VWS V13.01,2013-03-31 21:30:00,
2013-03-31 17:35:00,49.5,30.6,29.97,SSE,158,8.1,12.1,48,0.00,,---,0.00,VWS V13.01,2013-03-31 21:35:00,
2013-03-31 17:40:00,49.5,30.1,29.97,SSW,202,4.0,5.8,47,0.00,,---,0.00,VWS V13.01,2013-03-31 21:40:00,
2013-03-31 17:45:00,49.3,29.9,29.97,SSE,158,4.9,4.9,47,0.00,,---,0.00,VWS V13.01,2013-03-31 21:45:00,
2013-03-31 17:50:00,49.3,30.4,29.97,SW,225,2.7,7.6,48,0.00,,---,0.00,VWS V13.01,2013-03-31 21:50:00,
2013-03-31 17:55:00,49.3,30.4,29.97,WSW,248,5.8,6.7,48,0.00,,---,0.00,VWS V13.01,2013-03-31 21:55:00,
2013-03-31 18:00:00,49.1,30.3,29.97,SSW,202,4.5,6.7,48,0.00,,---,0.00,VWS V13.01,2013-03-31 22:00:00,
2013-03-31 18:05:00,49.1,30.3,29.97,South,180,0.0,8.1,48,0.00,,---,0.00,VWS V13.01,2013-03-31 22:05:00,
2013-03-31 18:10:00,49.1,30.3,29.97,SW,225,4.5,4.9,48,0.00,,---,0.00,VWS V13.01,2013-03-31 22:10:00,
2013-03-31 18:15:00,49.1,30.3,29.97,SSE,158,5.8,7.6,48,0.00,,---,0.00,VWS V13.01,2013-03-31 22:15:00,
2013-03-31 18:20:00,49.3,30.4,29.97,NNE,22,4.9,7.6,48,0.00,,---,0.00,VWS V13.01,2013-03-31 22:20:00,
2013-03-31 18:25:00,49.5,30.6,29.94,SSW,202,4.0,6.3,48,0.00,,---,0.00,VWS V13.01,2013-03-31 22:25:00,
2013-03-31 18:30:00,49.5,30.6,29.94,SSE,158,4.9,5.4,48,0.00,,---,0.00,VWS V13.01,2013-03-31 22:30:00,
2013-03-31 18:35:00,49.5,30.1,29.94,SW,225,4.5,4.9,47,0.00,,---,0.00,VWS V13.01,2013-03-31 22:35:00,
2013-03-31 18:40:00,49.5,30.1,29.94,SSE,158,2.7,6.7,47,0.00,,---,0.00,VWS V13.01,2013-03-31 22:40:00,
2013-03-31 18:45:00,49.5,30.6,29.94,SE,135,5.4,6.3,48,0.00,,---,0.00,VWS V13.01,2013-03-31 22:45:00,
2013-03-31 18:50:00,49.5,30.6,29.94,South,180,0.0,5.4,48,0.00,,---,0.00,VWS V13.01,2013-03-31 22:50:00,
2013-03-31 18:55:00,49.5,30.1,29.94,ESE,112,4.9,11.2,47,0.00,,---,0.00,VWS V13.01,2013-03-31 22:55:00,
2013-03-31 19:00:00,49.3,29.9,29.94,ESE,112,4.5,6.7,47,0.00,,---,0.00,VWS V13.01,2013-03-31 23:00:00,
2013-03-31 19:05:00,49.3,30.4,29.94,ESE,112,5.8,11.2,48,0.00,,---,0.00,VWS V13.01,2013-03-31 23:05:00,
2013-03-31 19:10:00,49.3,29.9,29.91,SSW,202,2.2,2.7,47,0.00,,---,0.00,VWS V13.01,2013-03-31 23:10:00,
2013-03-31 19:15:00,49.3,29.9,29.91,WNW,292,0.0,3.1,47,0.00,,---,0.00,VWS V13.01,2013-03-31 23:15:00,
2013-03-31 19:20:00,49.1,29.8,29.91,South,180,2.7,4.9,47,0.00,,---,0.00,VWS V13.01,2013-03-31 23:20:00,
2013-03-31 19:24:00,49.1,30.3,29.91,South,180,1.8,1.8,48,0.00,,---,0.00,VWS V13.01,2013-03-31 23:24:00,
2013-03-31 19:30:00,49.3,30.4,29.91,SSE,158,4.0,7.2,48,0.00,,---,0.00,VWS V13.01,2013-03-31 23:30:00,
2013-03-31 19:35:00,49.1,30.3,29.91,SE,135,4.0,4.5,48,0.00,,---,0.00,VWS V13.01,2013-03-31 23:35:00,
2013-03-31 19:40:00,49.1,30.3,29.91,ESE,112,2.7,4.5,48,0.00,,---,0.00,VWS V13.01,2013-03-31 23:40:00,
2013-03-31 19:44:00,49.1,30.3,29.91,SE,135,3.1,3.1,48,0.00,,---,0.00,VWS V13.01,2013-03-31 23:44:00,
2013-03-31 19:49:00,49.1,30.8,29.91,ESE,112,6.7,8.1,49,0.00,,---,0.00,VWS V13.01,2013-03-31 23:49:00,
2013-03-31 19:55:00,49.3,31.5,29.88,ESE,112,7.2,7.2,50,0.00,,---,0.00,VWS V13.01,2013-03-31 23:55:00,
2013-03-31 20:00:00,49.3,31.5,29.88,SE,135,0.0,5.4,50,0.00,,---,0.00,VWS V13.01,2013-04-01 00:00:00,
2013-03-31 20:05:00,49.3,31.5,29.88,SE,135,6.7,10.7,50,0.00,,---,0.00,VWS V13.01,2013-04-01 00:05:00,
2013-03-31 20:10:00,49.1,31.3,29.88,SE,135,4.9,6.3,50,0.00,,---,0.00,VWS V13.01,2013-04-01 00:10:00,
2013-03-31 20:15:00,49.1,31.8,29.88,ESE,112,7.6,7.6,51,0.00,,---,0.00,VWS V13.01,2013-04-01 00:15:00,
2013-03-31 20:20:00,49.1,31.3,29.88,South,180,6.7,6.7,50,0.00,,---,0.00,VWS V13.01,2013-04-01 00:20:00,
2013-03-31 20:25:00,49.1,31.3,29.88,SSW,202,2.2,6.3,50,0.00,,---,0.00,VWS V13.01,2013-04-01 00:25:00,
2013-03-31 20:30:00,49.1,31.3,29.88,South,180,5.8,5.8,50,0.00,,---,0.00,VWS V13.01,2013-04-01 00:30:00,
2013-03-31 20:35:00,49.1,31.3,29.88,South,180,5.8,10.7,50,0.00,,---,0.00,VWS V13.01,2013-04-01 00:35:00,
2013-03-31 20:40:00,49.1,32.2,29.85,SSE,158,4.0,8.5,52,0.00,,---,0.00,VWS V13.01,2013-04-01 00:40:00,
2013-03-31 20:45:00,49.1,31.8,29.85,SE,135,5.4,7.6,51,0.00,,---,0.00,VWS V13.01,2013-04-01 00:45:00,
2013-03-31 20:50:00,49.1,31.8,29.85,SE,135,4.5,6.3,51,0.00,,---,0.00,VWS V13.01,2013-04-01 00:50:00,
2013-03-31 20:55:00,49.1,32.2,29.85,East,90,6.3,8.5,52,0.00,,---,0.00,VWS V13.01,2013-04-01 00:55:00,
2013-03-31 21:00:00,49.1,32.2,29.85,SE,135,8.5,8.5,52,0.00,,---,0.00,VWS V13.01,2013-04-01 01:00:00,
2013-03-31 21:05:00,49.1,32.2,29.85,ESE,112,11.2,14.8,52,0.00,,---,0.00,VWS V13.01,2013-04-01 01:05:00,
2013-03-31 21:10:00,49.1,32.2,29.85,SSE,158,8.5,8.5,52,0.00,,---,0.00,VWS V13.01,2013-04-01 01:10:00,
2013-03-31 21:15:00,48.9,32.1,29.85,ESE,112,8.1,8.1,52,0.00,,---,0.00,VWS V13.01,2013-04-01 01:15:00,
2013-03-31 21:20:00,48.9,32.1,29.85,ESE,112,3.1,5.4,52,0.00,,---,0.00,VWS V13.01,2013-04-01 01:20:00,
2013-03-31 21:25:00,48.9,32.1,29.82,ESE,112,2.2,4.0,52,0.00,,---,0.00,VWS V13.01,2013-04-01 01:25:00,
2013-03-31 21:30:00,48.7,31.9,29.82,SSE,158,4.9,4.9,52,0.00,,---,0.00,VWS V13.01,2013-04-01 01:30:00,
2013-03-31 21:35:00,48.7,31.9,29.82,SSE,158,8.1,8.1,52,0.00,,---,0.00,VWS V13.01,2013-04-01 01:35:00,
2013-03-31 21:40:00,48.9,33.0,29.82,SE,135,7.2,12.5,54,0.00,,---,0.00,VWS V13.01,2013-04-01 01:40:00,
2013-03-31 21:45:00,48.7,32.4,29.82,ESE,112,7.6,7.6,53,0.00,,---,0.00,VWS V13.01,2013-04-01 01:45:00,
2013-03-31 21:50:00,48.7,32.4,29.82,SSE,158,2.2,2.2,53,0.00,,---,0.00,VWS V13.01,2013-04-01 01:50:00,
2013-03-31 21:55:00,48.7,32.8,29.82,ESE,112,7.6,7.6,54,0.00,,---,0.00,VWS V13.01,2013-04-01 01:55:00,
2013-03-31 22:00:00,48.7,33.3,29.82,South,180,4.9,6.3,55,0.00,,---,0.00,VWS V13.01,2013-04-01 02:00:00,
2013-03-31 22:05:00,48.7,33.8,29.82,South,180,6.7,6.7,56,0.00,,---,0.00,VWS V13.01,2013-04-01 02:05:00,
2013-03-31 22:10:00,48.6,34.5,29.82,South,180,6.3,13.0,58,0.00,,---,0.00,VWS V13.01,2013-04-01 02:10:00,
2013-03-31 22:15:00,48.6,34.5,29.82,SE,135,3.1,3.1,58,0.00,,---,0.00,VWS V13.01,2013-04-01 02:15:00,
2013-03-31 22:20:00,48.2,35.0,29.82,SSE,158,3.1,8.5,60,0.00,,---,0.00,VWS V13.01,2013-04-01 02:20:00,
2013-03-31 22:25:00,48.0,36.4,29.79,ESE,112,11.2,11.2,64,0.00,,---,0.00,VWS V13.01,2013-04-01 02:25:00,
2013-03-31 22:30:00,47.7,36.1,29.79,SSE,158,0.0,5.8,64,0.00,,---,0.00,VWS V13.01,2013-04-01 02:30:00,
2013-03-31 22:35:00,47.3,35.8,29.79,SW,225,5.4,5.4,64,0.00,,---,0.00,VWS V13.01,2013-04-01 02:35:00,
2013-03-31 22:40:00,47.1,36.0,29.79,South,180,0.0,6.3,65,0.00,,---,0.00,VWS V13.01,2013-04-01 02:40:00,
2013-03-31 22:45:00,46.9,36.2,29.79,South,180,2.7,4.9,66,0.00,,---,0.00,VWS V13.01,2013-04-01 02:45:00,
2013-03-31 22:50:00,46.8,36.0,29.79,ESE,112,9.8,9.8,66,0.00,,---,0.00,VWS V13.01,2013-04-01 02:50:00,
2013-03-31 22:55:00,46.6,36.6,29.76,SSE,158,4.0,4.9,68,0.00,,---,0.00,VWS V13.01,2013-04-01 02:55:00,
2013-03-31 23:00:00,46.4,36.4,29.76,SSW,202,4.0,6.3,68,0.00,,---,0.00,VWS V13.01,2013-04-01 03:00:00,
2013-03-31 23:05:00,46.2,36.6,29.76,SSE,158,0.0,2.2,69,0.00,,---,0.00,VWS V13.01,2013-04-01 03:05:00,
2013-03-31 23:10:00,45.9,36.3,29.76,South,180,0.0,0.0,69,0.00,,---,0.00,VWS V13.01,2013-04-01 03:10:00,
2013-03-31 23:15:00,45.7,37.2,29.76,SE,135,0.0,5.8,72,0.00,,---,0.00,VWS V13.01,2013-04-01 03:15:00,
2013-03-31 23:20:00,45.5,36.7,29.76,SSW,202,0.0,0.0,71,0.00,,---,0.00,VWS V13.01,2013-04-01 03:20:00,
2013-03-31 23:25:00,45.3,36.8,29.76,ENE,68,0.0,0.0,72,0.04,,---,0.04,VWS V13.01,2013-04-01 03:25:00,
2013-03-31 23:30:00,45.1,36.7,29.76,NNW,338,0.0,0.0,72,0.04,,---,0.04,VWS V13.01,2013-04-01 03:30:00,
2013-03-31 23:35:00,44.8,36.7,29.76,North,0,0.0,0.0,73,0.04,,---,0.04,VWS V13.01,2013-04-01 03:35:00,
2013-03-31 23:40:00,44.8,36.7,29.74,NE,45,0.0,0.0,73,0.04,,---,0.04,VWS V13.01,2013-04-01 03:40:00,
2013-03-31 23:45:00,44.6,37.2,29.74,NNW,338,0.0,2.2,75,0.08,,---,0.08,VWS V13.01,2013-04-01 03:45:00,
2013-03-31 23:50:00,44.6,37.2,29.74,NW,315,0.0,0.0,75,0.08,,---,0.08,VWS V13.01,2013-04-01 03:50:00,
2013-03-31 23:55:00,44.4,37.3,29.74,ESE,112,2.2,4.0,76,0.12,,---,0.12,VWS V13.01,2013-04-01 03:55:00,